This demonstration page uses our WeatherBlox Daily Observations layout. Learn more.

Left ArrowRight Arrow

44.31136, -96.79839

Hourly Observations for August 23, 2022

Temp ( °F °C ) Dew Point ( °F °C ) Humidity (%) Winds ( mph kmh ) Pressure ( in mb ) Visibility ( mi km ) Precip ( " mm )
12:56 am 00:56 Clear 67 19.4 67 19.4 100 100 SSE 8 13 30.03 1017 10 16 0.00 0.00
1:56 am 01:56 Clear 66 18.9 66 18.9 100 100 SSE 7 11 30.01 1016 10 16 0.00 0.00
2:56 am 02:56 Clear 65 18.3 65 18.3 100 100 SSE 7 11 30.00 1016 10 16 0.00 0.00
3:56 am 03:56 Mostly Cloudy 65 18.3 65 18.3 100 100 SSE 7 11 29.99 1016 10 16 0.00 0.00
4:56 am 04:56 Clear 65 18.3 64 17.8 97 97 S 10 17 29.98 1015 10 16 0.00 0.00
5:56 am 05:56 Clear 65 18.3 64 17.8 97 97 S 12 19 29.97 1015 10 16 0.00 0.00
6:56 am 06:56 Sunny 65 18.3 63 17.2 93 93 S 10 17 29.97 1015 10 16 0.00 0.00
7:56 am 07:56 Sunny 67 19.4 63 17.2 87 87 S 12 19 29.97 1015 10 16 0.00 0.00
8:56 am 08:56 Partly Cloudy 69 20.6 63 17.2 81 81 S 8 13 29.97 1015 10 16 0.00 0.00
9:56 am 09:56 Partly Cloudy 73 22.8 63 17.2 71 71 S 7 11 29.98 1015 10 16 0.00 0.00
10:56 am 10:56 Sunny 77 25 63 17.2 62 62 SSW 6 9 29.97 1015 10 16 0.00 0.00
11:56 am 11:56 Sunny 82 27.8 64 17.8 55 55 ESE 5 7 29.96 1015 10 16 0.00 0.00
12:56 pm 12:56 Sunny 86 30 63 17.2 46 46 Calm 29.96 1014 8 13 0.00 0.00
1:56 pm 13:56 Sunny 86 30 64 17.8 48 48 Calm 29.95 1014 10 16 0.00 0.00
2:56 pm 14:56 Sunny 83 28.3 68 20 61 61 ESE 7 11 29.95 1014 10 16 0.00 0.00
3:56 pm 15:56 Sunny 86 30 67 19.4 53 53 ESE 7 11 29.93 1014 10 16 0.00 0.00
4:56 pm 16:56 Mostly Sunny 84 28.9 68 20 59 59 SE 9 15 29.93 1014 10 16 0.00 0.00
5:56 pm 17:56 Mostly Cloudy 87 30.6 69 20.6 55 55 E 9 15 29.91 1013 10 16 0.00 0.00
6:56 pm 18:56 Partly Cloudy 84 28.9 69 20.6 61 61 SE 8 13 29.91 1013 10 16 0.00 0.00
7:56 pm 19:56 Sunny 80 26.7 69 20.6 69 69 ESE 8 13 29.92 1013 10 16 0.00 0.00
8:56 pm 20:56 Mostly Cloudy 77 25 69 20.6 77 77 E 5 7 29.94 1014 10 16 0.00 0.00
9:56 pm 21:56 Clear 74 23.3 70 21.1 87 87 ENE 6 9 29.95 1014 10 16 0.00 0.00
10:56 pm 22:56 Clear 73 22.8 68 20 84 84 ESE 8 13 29.93 1014 10 16 0.00 0.00
11:56 pm 23:56 Clear 70 21.1 68 20 93 93 SE 10 17 29.93 1014 10 16 0.00 0.00

Powered by AerisWeather